SES-8

Last updated on Sun Jun 21 2026 00:03:05 GMT+0000 (Coordinated Universal Time)

1 39460U 13071A 26171.33956891 -.00000274 00000+0 00000+0 0 9997 2 39460 0.0166 297.5628 0002743 151.4996 36.7317 1.00271927 44461
UTC large
Height (km)
Speed (km/s)
/
Latitude / Longitude
Inclination (degrees)
Orbital Period (minutes)
Azimuth
Elevation
Range (km)
Doppler Factor

Next 0 passes for location: London (51.5072 / 0.1276)

No passes found over London.
SES-8